CHAMRAN-1

Last updated on Tue Oct 08 2024 00:02:04 GMT+0000 (Coordinated Universal Time)

1 61072U 24165B 24281.57327493 .00020778 00000+0 13496-2 0 9999 2 61072 64.0895 263.6037 0015949 290.3136 69.6264 15.07973018 3512
UTC large
Height (km)
Speed (km/s)
/
Latitude / Longitude
Inclination (degrees)
Orbital Period (minutes)
Azimuth
Elevation
Range (km)
Doppler Factor

Next 0 passes for location: London (51.5072 / 0.1276)

Sorry there are no passes over London.